DW6276 Weather Reports


Display with metric or nautical units.
time (UTC)temp
F
wind
direction
speed
MPH
gust
MPH
rain 1hr
in
rain 24hr
in
rain mn
in
humidity
%
barometer
mb
20221206112036 9 0.0 0.0 0.00 0.00 0.00 84 1017.6
20221206111016 10 0.0 0.0 0.00 0.00 0.00 84 1017.5
20221206110016 10 0.0 0.0 0.00 0.00 0.00 84 1017.6
20221206105016 9 0.0 0.0 0.00 0.00 0.00 84 1017.3
20221206104016 9 0.0 0.0 0.00 0.00 0.00 83 1017.4
20221206103016 10 0.0 0.0 0.00 0.00 0.00 83 1017.5
20221206102016 10 0.0 0.0 0.00 0.00 0.00 83 1017.4
20221206101016 10 0.0 0.0 0.00 0.00 0.00 82 1017.3
20221206100016 11 0.0 0.0 0.00 0.00 0.00 83 1017.3
20221206095016 11 0.0 0.0 0.00 0.00 0.00 83 1017.5
20221206094016 10 0.0 0.0 0.00 0.00 0.00 82 1017.4
20221206093016 11 0.0 0.0 0.00 0.00 0.00 82 1017.6
20221206092016 11 0.0 0.0 0.00 0.00 0.00 81 1017.7
20221206091015 12 0.0 0.0 0.00 0.00 0.00 81 1017.8
20221206090016 12 0.0 0.0 0.00 0.00 0.00 82 1017.8
20221206085016 12 0.0 0.0 0.00 0.00 0.00 81 1017.8
20221206084017 12 0.0 0.0 0.00 0.00 0.00 81 1018.1
20221206083015 13 0.0 0.0 0.00 0.00 0.00 81 1018.5
20221206082021 12 0.0 0.0 0.00 0.00 0.00 81 1018.9
20221206081019 12 0.0 0.0 0.00 0.00 0.00 80 1018.8
20221206080039 12 0.0 0.0 0.00 0.00 0.00 80 1018.5
20221206075016 12 0.0 0.0 0.00 0.00 0.00 79 1018.5
20221206074015 13 0.0 0.0 0.00 0.00 0.00 79 1018.3
20221206073016 13 0.0 0.0 0.00 0.00 0.00 78 1018.1
20221206072016 13 0.0 0.0 0.00 0.00 0.00 78 1018.2
20221206071017 14 0.0 0.0 0.00 0.00 0.00 77 1018.2
20221206070015 14 0.0 0.0 0.00 0.00 0.00 77 1018.4
20221206065017 14 0.0 0.0 0.00 0.00 0.00 77 1018.4
20221206064059 15 0.0 0.0 0.00 0.00 0.00 77 1018.5
20221206063017 15 0.0 0.0 0.00 0.00 0.00 76 1018.4
20221206062015 15 0.0 0.0 0.00 0.00 0.00 76 1018.4
20221206061015 16 0.0 0.0 0.00 0.00 0.00 75 1018.3
20221206060015 16 0.0 0.0 0.00 0.00 0.00 75 1018.4
20221206055016 16 0.0 0.0 0.00 0.00 0.00 74 1018.4
20221206054110 17 0.0 0.0 0.00 0.00 0.00 73 1018.0
20221206053036 17 0.0 0.0 0.00 0.00 0.00 73 1018.0
20221206052016 18 0.0 0.0 0.00 0.00 0.00 73 1018.1
20221206051016 18 0.0 0.0 0.00 0.00 0.00 72 1017.6
20221206050016 19 0.0 0.0 0.00 0.00 0.00 72 1017.4
20221206045016 19 0.0 0.0 0.00 0.00 0.00 72 1017.4
20221206044019 20 0.0 0.0 0.00 0.00 0.00 72 1017.3
20221206043017 20 0.0 0.0 0.00 0.00 0.00 72 1017.3
20221206042016 20 0.0 0.0 0.00 0.00 0.00 72 1017.1
20221206041016 21 0.0 0.0 0.00 0.00 0.00 73 1017.0
20221206040038 21 0.0 0.0 0.00 0.00 0.00 74 1017.2
20221206035016 22 0.0 3.0 0.00 0.00 0.00 76 1017.1
20221206034037 22 0.0 3.0 0.00 0.00 0.00 77 1017.1
20221206033016 22 0.0 0.0 0.00 0.00 0.00 79 1017.0
20221206032016 22 338 1.0 4.0 0.00 0.00 0.00 80 1017.2
20221206031016 23 0.0 3.0 0.00 0.00 0.00 81 1017.3
20221206030016 23 0.0 0.0 0.00 0.00 0.00 82 1017.4
20221206025056 23 0.0 0.0 0.00 0.00 0.00 83 1017.3
20221206024017 23 0.0 0.0 0.00 0.00 0.00 84 1017.4
20221206023036 23 0.0 0.0 0.00 0.00 0.00 84 1017.1
20221206022016 23 0.0 0.0 0.00 0.00 0.00 84 1017.0
20221206021039 23 0.0 0.0 0.00 0.00 0.00 85 1016.6
20221206020039 23 0.0 2.0 0.00 0.00 0.00 85 1016.7
20221206015036 23 0.0 0.0 0.00 0.00 0.00 85 1016.8
20221206014016 23 0.0 0.0 0.00 0.00 0.00 84 1016.7
20221206013036 23 0.0 0.0 0.00 0.00 0.00 84 1016.9
20221206012036 23 0.0 0.0 0.00 0.00 0.00 84 1016.9
20221206011016 23 0.0 0.0 0.00 0.00 0.00 85 1016.7
20221206010016 24 0.0 0.0 0.00 0.00 0.00 85 1016.8
20221206005038 24 0.0 0.0 0.00 0.00 0.00 86 1016.6
20221206004016 24 0.0 5.0 0.00 0.00 0.00 86 1016.8
20221206003036 24 0.0 3.0 0.00 0.00 0.00 86 1016.6
20221206002017 25 0.0 0.0 0.00 0.00 0.00 86 1016.6
20221206001015 25 0.0 4.0 0.00 0.00 0.00 85 1016.5
20221206000017 25 0.0 4.0 0.00 0.00 0.00 84 1016.5
20221205235016 25 293 1.0 6.0 0.00 0.00 0.00 84 1016.5
20221205234015 25 338 1.0 5.0 0.00 0.00 0.00 83 1016.2
20221205233017 25 315 1.0 4.0 0.00 0.00 0.00 82 1015.9
20221205232016 26 293 1.0 4.0 0.00 0.00 0.00 81 1015.8
20221205231015 26 0 2.0 6.0 0.00 0.00 0.00 80 1015.8
20221205230015 26 315 1.0 5.0 0.00 0.00 0.00 79 1015.8
20221205225016 27 0.0 4.0 0.00 0.00 0.00 77 1015.7
20221205224018 27 293 2.0 8.0 0.00 0.00 0.00 76 1015.5
20221205223015 28 0 3.0 9.0 0.00 0.00 0.00 73 1015.0
20221205222015 28 0 1.0 7.0 0.00 0.00 0.00 71 1015.0
20221205221016 29 315 2.0 9.0 0.00 0.00 0.00 71 1015.1
20221205220035 29 23 1.0 9.0 0.00 0.00 0.00 71 1014.7
20221205215015 29 315 1.0 6.0 0.00 0.00 0.00 71 1014.5
20221205214015 29 0 1.0 7.0 0.00 0.00 0.00 71 1014.6
20221205213015 29 270 1.0 4.0 0.00 0.00 0.00 72 1014.5
20221205212017 30 338 1.0 4.0 0.00 0.00 0.00 73 1014.2
20221205211035 30 0.0 3.0 0.00 0.00 0.00 73 1014.1
20221205210015 30 315 1.0 3.0 0.00 0.00 0.00 73 1014.1
20221205205016 30 0.0 1.0 0.00 0.00 0.00 73 1013.9
20221205204039 30 293 1.0 7.0 0.00 0.00 0.00 73 1014.1
20221205203035 30 338 1.0 9.0 0.00 0.00 0.00 73 1013.8
20221205202035 30 0 1.0 6.0 0.00 0.01 0.00 73 1013.6
20221205201035 30 338 1.0 5.0 0.00 0.01 0.00 73 1013.5
20221205200015 31 0 1.0 5.0 0.00 0.01 0.00 73 1013.4
20221205195015 31 293 1.0 5.0 0.00 0.01 0.00 74 1013.2
20221205194015 31 338 1.0 7.0 0.00 0.01 0.00 73 1012.8
20221205193015 31 315 1.0 5.0 0.00 0.01 0.00 74 1012.9
20221205192015 31 0.0 4.0 0.00 0.01 0.00 75 1012.9
20221205191035 31 338 1.0 4.0 0.00 0.01 0.00 75 1012.7
20221205190036 31 338 1.0 5.0 0.00 0.02 0.00 75 1012.3
20221205185015 31 338 1.0 6.0 0.00 0.02 0.00 75 1012.6
20221205184019 31 293 1.0 7.0 0.00 0.02 0.00 74 1012.5
20221205183017 31 338 1.0 8.0 0.00 0.02 0.00 74 1012.3
20221205182017 31 338 1.0 5.0 0.00 0.02 0.00 73 1012.3
20221205181017 31 338 1.0 4.0 0.00 0.02 0.00 73 1012.4
20221205180039 31 0.0 3.0 0.00 0.02 0.00 74 1012.4
20221205175017 31 0 1.0 6.0 0.00 0.02 0.00 74 1012.4
20221205174017 31 338 1.0 7.0 0.00 0.03 0.00 74 1012.6
20221205173017 30 338 1.0 4.0 0.00 0.03 0.00 75 1012.7
20221205172037 30 0 1.0 6.0 0.00 0.03 0.00 75 1012.8
20221205171017 30 0.0 3.0 0.00 0.03 0.00 75 1012.7
20221205170017 30 270 1.0 4.0 0.00 0.03 0.00 76 1012.8
20221205165017 30 315 1.0 3.0 0.00 0.03 0.00 76 1013.0
20221205164017 30 0.0 5.0 0.00 0.03 0.00 77 1012.8
20221205163017 29 293 1.0 6.0 0.00 0.03 0.00 77 1012.8
20221205162037 29 0.0 0.0 0.00 0.03 0.00 78 1013.0
20221205161017 29 0 1.0 5.0 0.00 0.03 0.00 78 1012.6
20221205160018 29 0.0 3.0 0.00 0.03 0.00 79 1012.7
20221205155016 29 338 1.0 6.0 0.00 0.03 0.00 79 1012.6
20221205154016 28 338 2.0 7.0 0.00 0.03 0.00 80 1012.3
20221205153017 28 338 1.0 6.0 0.00 0.03 0.00 81 1012.3
20221205152100 28 0.0 4.0 0.00 0.03 0.00 81 1012.2
20221205151016 28 0.0 2.0 0.00 0.03 0.00 82 1011.7
20221205150018 27 0.0 0.0 0.00 0.03 0.00 82 1011.5
20221205145017 27 0.0 0.0 0.00 0.03 0.00 82 1011.5
20221205144021 27 0.0 0.0 0.00 0.03 0.00 82 1011.5
20221205143016 27 0.0 0.0 0.00 0.03 0.00 83 1011.4
20221205142016 26 0.0 0.0 0.00 0.03 0.00 82 1011.5
20221205141016 26 0.0 0.0 0.00 0.03 0.00 82 1011.3
20221205140018 26 0.0 0.0 0.00 0.03 0.00 82 1011.2
20221205135018 26 0.0 0.0 0.00 0.03 0.00 81 1010.8
20221205134036 26 0.0 0.0 0.00 0.03 0.00 81 1010.6
20221205133016 27 0.0 0.0 0.00 0.03 0.00 81 1010.5
20221205132016 27 0.0 0.0 0.00 0.03 0.00 81 1010.2
20221205131016 27 0.0 0.0 0.00 0.03 0.00 81 1009.9
20221205130016 27 0.0 0.0 0.00 0.03 0.00 80 1009.6
20221205125016 27 0.0 0.0 0.00 0.03 0.00 80 1009.5
20221205124016 27 0.0 0.0 0.00 0.03 0.00 79 1009.6
20221205123017 28 0.0 0.0 0.00 0.03 0.00 79 1009.6
20221205122016 28 0.0 0.0 0.00 0.03 0.00 79 1009.4
20221205121016 28 0.0 0.0 0.00 0.03 0.00 79 1009.4
20221205120016 28 0.0 0.0 0.00 0.03 0.00 79 1009.4
20221205115016 29 0.0 0.0 0.00 0.03 0.00 79 1009.8
20221205114016 29 0.0 0.0 0.00 0.03 0.00 79 1009.5
20221205113016 29 0.0 0.0 0.00 0.03 0.00 79 1009.5